Omaha, IA

9:51 AM CDT on September 15, 2019 (GMT -0500)
Eppley Airfield

Weather History for KOMA - August, 2019

Change the Weather History Date:

Saturday, August 17, 2019

  Actual Average Record
Temperature  
Mean Temperature 78 °F 75 °F  
Max Temperature 86 °F 85 °F 106 °F (1936)
Min Temperature 71 °F 64 °F 48 °F (1890)
Degree Days  
Heating Degree Days 0 0  
Month to date heating degree days 0 0  
Since 1 June heating degree days 0 18  
Since 1 July heating degree days 0 1  
Cooling Degree Days 14 10  
Month to date cooling degree days 213 181  
Year to date cooling degree days 1017 858  
Since 1 June cooling degree days 921 776  
Growing Degree Days 28 (Base 50)    
Moisture  
Dew Point 69 °F    
Average Humidity 77    
Maximum Humidity 90    
Minimum Humidity 57    
Precipitation  
Precipitation 0.00 in 0.13 in 2.33 in (1980)
Month to date precipitation 3.77 2.16  
Year to date precipitation 23.76 21.45  
Snow  
Snow 0.00 in 0.00 in - ()
Month to date snowfall 0.0 0.0  
Since 1 June snowfall 0.0 0.0  
Since 1 July snowfall 0.0 0.0  
Snow Depth 0.00 in    
Sea Level Pressure  
Sea Level Pressure 29.76 in    
Wind  
Wind Speed 9 mph ()    
Max Wind Speed 26 mph    
Max Gust Speed 34 mph    
Visibility 10.0 miles    
Events      
T = Trace of Precipitation, MM = Missing Value Source: Averaged Metar Reports

Daily Weather History Graph

Daily Weather History Graph

Search for Another Location

Airport or City:

Astronomy

Aug. 17, 2019 Rise Set
Actual Time 6:34 AM CDT 8:19 PM CDT
Civil Twilight 6:05 AM CDT 8:49 PM CDT
Nautical Twilight 5:29 AM CDT 9:25 PM CDT
Astronomical Twilight 4:50 AM CDT 10:03 PM CDT
Moon 9:47 PM CDT (8/17) 8:24 AM CDT (8/17)
Length of Visible Light 14h 44m
Length of Day
13h 45m
Waning Gibbous, 96% of the Moon is Illuminated
Aug 17
Waning Gibbous
Aug 23
Last Quarter
Aug 30
New
Sep 5
First Quarter
Sep 13
Full

Hourly Weather History & Observations

Time (CDT) Temp. Heat Index Dew Point Humidity Pressure Visibility Wind Dir Wind Speed Gust Speed Precip Events Conditions
12:52 AM 72.0 °F - 66.9 °F 84% 29.84 in 10.0 mi ENE 3.5 mph - N/A   Overcast
1:52 AM 71.1 °F - 66.9 °F 87% 29.75 in 10.0 mi NNE 4.6 mph - N/A   Overcast
2:52 AM 72.0 °F - 66.9 °F 84% 29.76 in 10.0 mi East 5.8 mph - N/A   Overcast
3:52 AM 73.0 °F - 69.1 °F 87% 29.83 in 10.0 mi SE 11.5 mph - N/A   Overcast
4:52 AM 73.0 °F - 70.0 °F 90% 29.85 in 10.0 mi SSE 9.2 mph - N/A   Mostly Cloudy
4:58 AM 73.0 °F - 70.0 °F 90% 29.88 in 10.0 mi SSE 9.2 mph - N/A   Overcast
5:52 AM 73.0 °F - 70.0 °F 90% 29.77 in 10.0 mi East 4.6 mph - N/A   Overcast
6:52 AM 72.0 °F - 68.0 °F 87% 29.80 in 10.0 mi South 16.1 mph 25.3 mph N/A   Overcast
7:14 AM 72.0 °F - 66.9 °F 84% 29.82 in 10.0 mi South 15.0 mph - N/A   Overcast
7:38 AM 72.0 °F - 66.0 °F 81% 29.83 in 10.0 mi South 10.4 mph - N/A   Overcast
7:52 AM 71.1 °F - 66.9 °F 87% 29.81 in 10.0 mi South 9.2 mph - N/A   Overcast
8:52 AM 72.0 °F - 66.0 °F 81% 29.81 in 10.0 mi South 8.1 mph - N/A   Overcast
9:52 AM 73.0 °F - 66.9 °F 81% 29.78 in 10.0 mi South 9.2 mph - N/A   Mostly Cloudy
10:52 AM 75.9 °F - 66.9 °F 74% 29.79 in 10.0 mi South 12.7 mph - N/A   Mostly Cloudy
11:52 AM 79.0 °F - 66.9 °F 66% 29.79 in 10.0 mi South 10.4 mph - N/A   Mostly Cloudy
12:52 PM 82.0 °F 84.9 °F 68.0 °F 62% 29.78 in 10.0 mi South 15.0 mph - N/A   Mostly Cloudy
1:52 PM 82.0 °F 84.9 °F 68.0 °F 62% 29.77 in 10.0 mi South 13.8 mph - N/A   Mostly Cloudy
2:52 PM 84.0 °F 87.8 °F 69.1 °F 61% 29.75 in 10.0 mi South 16.1 mph - N/A   Mostly Cloudy
3:52 PM 84.0 °F 88.4 °F 70.0 °F 63% 29.72 in 10.0 mi SSE 13.8 mph 17.3 mph N/A   Scattered Clouds
4:52 PM 86.0 °F 90.7 °F 70.0 °F 59% 29.71 in 10.0 mi SSE 15.0 mph - N/A   Scattered Clouds
5:52 PM 84.9 °F 89.4 °F 70.0 °F 61% 29.70 in 10.0 mi SSE 15.0 mph - N/A   Scattered Clouds
6:52 PM 84.0 °F 89.0 °F 71.1 °F 65% 29.68 in 10.0 mi SE 19.6 mph - N/A   Scattered Clouds
7:52 PM 82.0 °F 86.7 °F 72.0 °F 71% 29.68 in 10.0 mi SSE 15.0 mph 25.3 mph N/A   Scattered Clouds
8:52 PM 81.0 °F 85.2 °F 72.0 °F 74% 29.69 in 10.0 mi SSE 15.0 mph - N/A   Scattered Clouds
9:52 PM 80.1 °F 84.2 °F 73.0 °F 79% 29.67 in 10.0 mi SSE 21.9 mph - N/A   Scattered Clouds
10:52 PM 80.1 °F 84.2 °F 73.0 °F 79% 29.67 in 10.0 mi South 19.6 mph 29.9 mph N/A   Mostly Cloudy
11:52 PM 79.0 °F - 73.0 °F 82% 29.68 in 10.0 mi South 16.1 mph 24.2 mph N/A   Mostly Cloudy